FENGYUN 1C DEB, 30475

Orbit data source: Space-Track

FENGYUN 1C DEB, 30475 is space debris in SSO originally from a launch on Mon, 10 May 1999 UTC launched from the Taiyaun Space Center, China (TSC). Fengyun 1C debris stems from the Chinese weather satellite Fengyun-1C, which was intentionally destroyed by a Chinese anti-satellite missile in 2007. This event dramatically increased the amount of space debris, with thousands of trackable fragments posing hazards to satellites and human spaceflight. The Fengyun 1C debris cloud has become a focal point in discussions about space sustainability and the need for international regulations to prevent the creation of new debris.

Loading next visibility...
Identifier
30475, 1999-025AGN
Orbit
SSO
Country
Flag of CNCN / PRC
Related business
Manufacturer
Unknown
Mission
Spacecraft
Bus & Motor
Unknown
Mass
Unknown
Launch date (UTC)
1999-05-10 (27 years ago)
Launch vehicle
Unknown
Launch site
Taiyaun Space Center, China (TSC)
Object type
Payload
Rocket body
Debris
Shape & HBR
Unknown shape, 0.1 m
Radar Cross Section
Small (<0.1 m²)

Expand to show TLE details & history
Last TLE update: 8 hours ago

TLE from 8 hours ago
0 FENGYUN 1C DEB
1 30475U 99025AGN 26063.34304522  .00001636  00000-0  84477-3 0  9993
2 30475  98.7804 108.7154 0042861  61.6721  73.6730 14.15948094981062
Epoch: 2026-03-04T08:13Z
TLE epoch observation values (Epoch: 2026-03-04T08:13:59.107Z)
Latitude
43.62631°
Longitude
11.53097°
Altitude
836.973 km
Speed
7.443 km/s
True Right ascension
19h 48m 32s
True Declination
43° 27' 23"
Sunlit
Object was in daylight at epoch
Visualization orbit readout
Latitude
Unknown
Longitude
Unknown
Altitude
Unknown
Speed
Unknown
Apparent Right ascension
Unknown
Apparent Declination
Unknown
Sunlit
N/A
Visualization observer readout
Local Sidereal Time
20:23:58
Azimuth
Unknown
Elevation
Unknown
Doppler factor
Unknown
Orbital elements
Apogee altitude
867.178 km
Perigee altitude
805.334 km
Semi-major axis
7,214.393 km
Eccentricity
0.00429
Inclination
98.7804°
RAAN
108.7154°
Arg. of periapsis
61.6721°
True anomaly
74.14505°
Mean anomaly
73.673°
Eccentric anomaly
73.90895°
Mean motion
3.54196 °/min
Orbital period
101.64 mins
BSTAR
0.00084477
Loading maneuver chart data...
Computing Atmospheric mass density...

Documentation

Showing up to 5 results
|